Northport, AL

9:42 PM CST on February 24, 2017 (GMT -0600)
Tuscaloosa Municipal

Weather History for KTCL - April, 2013

Change the Weather History Date:

Friday, April 5, 2013

  Actual Average Record
Temperature  
Mean Temperature 58 °F 60 °F  
Max Temperature 70 °F 74 °F 89 °F (1988)
Min Temperature 45 °F 47 °F 33 °F (1972)
Degree Days  
Heating Degree Days 7 6  
Month to date heating degree days 40 31  
Since 1 July heating degree days 2306 2415  
Growing Degree Days 8 (Base 50)    
Moisture  
Dew Point 44 °F    
Average Humidity 61    
Maximum Humidity 93    
Minimum Humidity 28    
Precipitation  
Precipitation 0.00 in 0.14 in 4.12 in (1956)
Month to date precipitation 0.47 0.71  
Year to date precipitation 15.99 15.92  
Sea Level Pressure  
Sea Level Pressure 30.06 in    
Wind  
Wind Speed 7 mph (North)    
Max Wind Speed 16 mph    
Max Gust Speed 23 mph    
Visibility 10 miles    
Events      
T = Trace of Precipitation, MM = Missing Value Source: NWS Daily Summary

Daily Weather History Graph

Daily Weather History Graph

Search for Another Location

Airport or City:

Trip Planner

Search our weather history database for the weather conditions in past years. The results will help you decide how hot, cold, wet, or windy it might be!

Date:

Astronomy

Apr. 05, 2013 Rise Set
Actual Time 6:32 AM CDT 7:13 PM CDT
Civil Twilight 6:07 AM CDT 7:38 PM CDT
Nautical Twilight 5:38 AM CDT 8:08 PM CDT
Astronomical Twilight 5:07 AM CDT 8:38 PM CDT
Moon 3:25 AM CDT (4/5) 2:50 PM CDT (4/5)
Length of Visible Light 13h 31m
Length of Day
12h 41m
Waning Crescent, 23% of the Moon is Illuminated
Apr 5
Waning Crescent
Apr 10
New
Apr 18
First Quarter
Apr 25
Full
May 2
Last Quarter

Hourly Weather History & Observations

Time (CDT) Temp. Windchill Dew Point Humidity Pressure Visibility Wind Dir Wind Speed Gust Speed Precip Events Conditions
12:03 AM 48.2 °F - 46.4 °F 93% 29.99 in 8.0 mi NE 6.9 mph - N/A   Overcast
12:21 AM 48.2 °F - 46.4 °F 93% 29.99 in 10.0 mi NE 4.6 mph - N/A   Overcast
12:46 AM 50.0 °F - 46.4 °F 87% 29.99 in 10.0 mi NE 3.5 mph - N/A   Overcast
12:53 AM 48.9 °F - 46.0 °F 90% 29.99 in 10.0 mi North 5.8 mph - N/A   Overcast
1:21 AM 48.2 °F - 46.4 °F 93% 30.00 in 10.0 mi NNE 6.9 mph - N/A   Overcast
1:53 AM 48.9 °F - 45.0 °F 86% 30.00 in 10.0 mi North 6.9 mph - N/A   Overcast
2:12 AM 48.2 °F - 44.6 °F 87% 30.00 in 10.0 mi North 5.8 mph - N/A   Overcast
2:20 AM 48.2 °F - 44.6 °F 87% 30.01 in 10.0 mi North 5.8 mph - N/A   Overcast
2:28 AM 48.2 °F - 44.6 °F 87% 30.01 in 10.0 mi North 8.1 mph - N/A   Overcast
2:53 AM 48.0 °F - 44.1 °F 86% 30.01 in 10.0 mi North 9.2 mph - N/A   Overcast
3:31 AM 48.2 °F - 44.6 °F 87% 30.02 in 10.0 mi North 6.9 mph - N/A   Overcast
3:53 AM 48.0 °F - 44.1 °F 86% 30.03 in 10.0 mi North 10.4 mph - N/A   Overcast
4:42 AM 46.4 °F 42.9 °F 42.8 °F 87% 30.04 in 10.0 mi North 6.9 mph - N/A   Overcast
4:53 AM 46.9 °F - 43.0 °F 86% 30.04 in 10.0 mi North 9.2 mph - N/A   Overcast
5:05 AM 46.4 °F 42.9 °F 42.8 °F 87% 30.04 in 10.0 mi North 6.9 mph - N/A   Overcast
5:53 AM 46.9 °F - 43.0 °F 86% 30.06 in 10.0 mi NNE 10.4 mph - N/A   Overcast
6:53 AM 46.9 °F - 43.0 °F 86% 30.08 in 10.0 mi North 4.6 mph - N/A   Overcast
7:23 AM 46.4 °F 43.5 °F 42.8 °F 87% 30.09 in 10.0 mi North 5.8 mph - N/A   Overcast
7:41 AM 48.2 °F - 42.8 °F 82% 30.10 in 10.0 mi NNW 5.8 mph - N/A   Overcast
7:53 AM 48.0 °F - 43.0 °F 83% 30.10 in 10.0 mi NNW 6.9 mph - N/A   Overcast
8:31 AM 48.2 °F - 44.6 °F 87% 30.10 in 10.0 mi NNW 8.1 mph - N/A   Overcast
8:53 AM 50.0 °F - 44.1 °F 80% 30.11 in 10.0 mi North 10.4 mph - N/A   Overcast
9:53 AM 51.1 °F - 45.0 °F 80% 30.13 in 10.0 mi North 10.4 mph - N/A   Overcast
10:13 AM 51.8 °F - 44.6 °F 76% 30.13 in 10.0 mi North 10.4 mph - N/A   Overcast
10:53 AM 55.0 °F - 46.0 °F 72% 30.13 in 10.0 mi NNE 8.1 mph - N/A   Overcast
11:31 AM 57.2 °F - 46.4 °F 67% 30.13 in 10.0 mi NNE 11.5 mph - N/A   Scattered Clouds
11:53 AM 59.0 °F - 46.9 °F 64% 30.12 in 10.0 mi NNE 9.2 mph - N/A   Scattered Clouds
12:53 PM 63.0 °F - 46.0 °F 54% 30.10 in 10.0 mi North 11.5 mph - N/A   Scattered Clouds
1:53 PM 64.9 °F - 45.0 °F 48% 30.08 in 10.0 mi NW 6.9 mph 18.4 mph N/A   Partly Cloudy
2:53 PM 68.0 °F - 42.1 °F 39% 30.06 in 10.0 mi NW 6.9 mph - N/A   Clear
3:53 PM 69.1 °F - 37.9 °F 32% 30.05 in 10.0 mi NNW 10.4 mph 17.3 mph N/A   Clear
4:53 PM 69.1 °F - 36.0 °F 30% 30.05 in 10.0 mi NNW 9.2 mph - N/A   Clear
5:53 PM 69.1 °F - 37.0 °F 31% 30.05 in 10.0 mi North 10.4 mph - N/A   Clear
6:53 PM 64.9 °F - 37.0 °F 36% 30.06 in 10.0 mi North 4.6 mph - N/A   Clear
7:53 PM 57.9 °F - 42.1 °F 56% 30.08 in 10.0 mi Calm Calm - N/A   Clear
8:53 PM 54.0 °F - 43.0 °F 66% 30.10 in 10.0 mi Calm Calm - N/A   Clear
9:53 PM 52.0 °F - 43.0 °F 71% 30.12 in 10.0 mi Calm Calm - N/A   Clear
10:53 PM 48.9 °F - 43.0 °F 80% 30.12 in 10.0 mi Calm Calm - N/A   Clear
11:53 PM 48.0 °F - 43.0 °F 83% 30.12 in 10.0 mi NE 3.5 mph - N/A   Clear